This demonstration page uses our WeatherBlox Daily Observations layout. Learn more.

Left ArrowRight Arrow

38.83388, -104.82136

Hourly Observations for January 24, 2017

Temp ( °F °C ) Dew Point ( °F °C ) Humidity (%) Winds ( mph kmh ) Pressure ( in mb ) Visibility ( mi km ) Precip ( " mm )
12:58 am 00:58 Cloudy 38 3.4 11 -11.5 33 33 NW 9 15 29.12 986 10 16 0.00 0.00
1:58 am 01:58 Cloudy 35 1.8 15 -9.5 43 43 NW 7 11 29.11 986 10 16 0.00 0.00
2:58 am 02:58 Mostly Cloudy 34 0.9 14 -9.9 45 45 SSW 3 6 29.10 986 10 16 0.00 0.00
3:58 am 03:58 Mostly Cloudy 34 1.3 6 -14.6 30 30 WNW 6 9 29.10 986 10 16 0.00 0.00
4:58 am 04:58 Mostly Cloudy 32 0 8 -13.4 36 36 Calm 29.10 986 10 16 0.00 0.00
5:58 am 05:58 Clear 31 -0.8 4 -15.5 32 32 WNW 3 6 29.11 986 10 16 0.00 0.00
6:58 am 06:58 Mostly Cloudy 28 -2.3 14 -10.2 55 55 NNW 12 19 29.16 987 10 16 0.00 0.00
7:58 am 07:58 Mostly Cloudy 28 -2 14 -9.9 55 55 NNW 6 9 29.16 987 10 16 0.00 0.00
8:58 am 08:58 Mostly Cloudy 28 -2 18 -7.8 65 65 N 10 17 29.18 988 10 16 0.00 0.00
9:58 am 09:58 Partly Cloudy 30 -0.9 17 -8.6 56 56 N 9 15 29.20 989 10 16 0.00 0.00
10:58 am 10:58 Partly Cloudy 31 -0.4 14 -10.2 48 48 N 13 20 29.19 988 10 16 0.00 0.00
11:58 am 11:58 Partly Cloudy 30 -0.9 18 -7.6 61 61 N 15 24 29.19 988 10 16 0.00 0.00
12:58 pm 12:58 Mostly Cloudy 31 -0.8 18 -7.9 59 59 N 16 26 29.17 988 10 16 0.00 0.00
1:58 pm 13:58 Partly Cloudy 30 -1.1 21 -5.9 70 70 N 15 24 29.21 989 10 16 0.00 0.00
2:13 pm 14:13 Mostly Cloudy 28 -2 21 -6 74 74 NNW 18 30 29.53 1000 10 16 0.00 0.00
2:23 pm 14:23 Mostly Cloudy 27 -3 21 -6 80 80 NNW 14 22 29.56 1001 10 16 0.00 0.00
2:58 pm 14:58 Mostly Sunny 27 -3 21 -6.3 78 78 N 14 22 29.23 990 10 16 0.00 0.00
3:48 pm 15:48 Mostly Cloudy 25 -4 19 -7 80 80 N 13 20 29.65 1004 10 16 0.00 0.00
3:58 pm 15:58 Mostly Cloudy 25 -4.1 20 -6.7 82 82 NNW 12 19 29.29 992 10 16 0.00 0.00
4:23 pm 16:23 Partly Cloudy 23 -5 19 -7 86 86 NNW 8 13 29.68 1005 10 16 0.00 0.00
4:38 pm 16:38 Mostly Cloudy 23 -5 19 -7 86 86 N 14 22 29.74 1007 10 16 0.00 0.00
4:58 pm 16:58 Mostly Cloudy 23 -5.1 19 -7.2 85 85 NNW 12 19 29.36 994 10 16 0.00 0.00
5:03 pm 17:03 Mostly Cloudy 23 -5 19 -7 86 86 NNW 7 11 29.74 1007 10 16 0.00 0.00
5:33 pm 17:33 Mostly Cloudy 23 -5 19 -7 86 86 N 7 11 29.74 1007 10 16 0.00 0.00
5:58 pm 17:58 Cloudy 23 -5.2 19 -7.1 87 87 N 7 11 29.41 996 10 16 0.00 0.00
6:58 pm 18:58 Cloudy 22 -5.6 19 -7.4 87 87 N 9 15 29.45 997 10 16 0.00 0.00
7:18 pm 19:18 Cloudy 21 -6 19 -7 93 93 N 10 17 29.83 1010 10 16 0.00 0.00
7:58 pm 19:58 Cloudy 21 -5.9 19 -7.4 89 89 N 6 9 29.47 998 10 16 0.00 0.00
8:58 pm 20:58 Cloudy 21 -6.3 18 -7.9 89 89 NW 9 15 29.51 999 10 16 0.00 0.00
9:13 pm 21:13 Cloudy 21 -6 18 -8 86 86 N 8 13 29.85 1011 10 16 0.00 0.00
9:58 pm 21:58 Cloudy 20 -6.9 17 -8.4 89 89 N 7 11 29.53 1000 10 16 0.00 0.00
10:05 pm 22:05 Cloudy with Light Snow 19 -7 16 -9 86 86 N 6 9 29.88 1012 10 16 0.00 0.00
10:58 pm 22:58 Cloudy with Light Snow Showers 19 -7.2 16 -8.8 88 88 NNW 5 7 29.55 1001 10 16 0.00 0.00
11:03 pm 23:03 Cloudy with Light Snow Showers 19 -7 16 -9 86 86 NW 7 11 29.94 1014 10 16 0.00 0.00
11:23 pm 23:23 Cloudy with Light Snow Showers 18 -8 16 -9 93 93 Calm 29.97 1015 10 16 0.00 0.00
11:45 pm 23:45 Cloudy 19 -7 16 -9 86 86 N 8 13 29.94 1014 10 16 0.00 0.00
11:52 pm 23:52 Cloudy with Light Snow Showers 18 -8 14 -10 86 86 NNE 3 6 29.97 1015 10 16 0.00 0.00
11:58 pm 23:58 Cloudy with Light Snow Showers 18 -7.7 15 -9.5 87 87 N 6 9 29.56 1001 10 16 0.00 0.00

Powered by AerisWeather